Weather History for Racine, WI

Change the Weather History Date:

Friday, January 18, 2013

  Actual Average Record
Temperature  
Mean Temperature 26 °F -  
Max Temperature 43 °F 27 °F 52 °F (1973)
Min Temperature 10 °F 11 °F -18 °F (1967)
Degree Days  
Heating Degree Days 38    
Moisture  
Dew Point 21 °F    
Average Humidity 66    
Maximum Humidity 88    
Minimum Humidity 53    
Precipitation  
Precipitation 0.00 in - - ()
Sea Level Pressure  
Sea Level Pressure 30.14 in    
Wind  
Wind Speed 9 mph (SSW)    
Max Wind Speed 23 mph    
Max Gust Speed 37 mph    
Visibility 10 miles    
Events      
Averages and records for this station are not official NWS values.
T = Trace of Precipitation, MM = Missing Value Source: NWS Daily Summary

Daily Weather History Graph

Daily Weather History Graph

Search for Another Location

Airport:

Trip Planner

Search our weather history database for the weather conditions in past years. The results will help you decide how hot, cold, wet, or windy it might be!

Date:

Astronomy

Jan. 18, 2013 Rise Set
Actual Time 7:17 AM CST 4:46 PM CST
Civil Twilight 6:46 AM CST 5:17 PM CST
Nautical Twilight 6:11 AM CST 5:52 PM CST
Astronomical Twilight 5:37 AM CST 6:26 PM CST
Moon 10:43 AM CST (1/18) No Moon Set
Length of Visible Light 10h 31m
Length of Day
9h 29m
Waxing Crescent, 47% of the Moon is Illuminated
Jan 18
Waxing Crescent
Jan 18
First Quarter
Jan 26
Full
Feb 3
Last Quarter
Feb 10
New

Hourly Weather History & Observations

Time (CST) Temp. Windchill Dew Point Humidity Pressure Visibility Wind Dir Wind Speed Gust Speed Precip Events Conditions
12:53 AM 14.0 °F 6.5 °F 8.1 °F 77% 30.45 in 10.0 mi West 4.6 mph - N/A   Clear
1:53 AM 10.9 °F - 8.1 °F 88% 30.44 in 10.0 mi Calm Calm - N/A   Clear
2:53 AM 15.1 °F 7.7 °F 9.0 °F 77% 30.46 in 10.0 mi West 4.6 mph - N/A   Clear
3:53 AM 16.0 °F - 10.0 °F 77% 30.44 in 10.0 mi Calm Calm - N/A   Scattered Clouds
4:53 AM 17.1 °F - 10.0 °F 74% 30.42 in 10.0 mi Calm Calm - N/A   Overcast
5:53 AM 19.0 °F 12.3 °F 10.9 °F 71% 30.39 in 10.0 mi South 4.6 mph - N/A   Overcast
6:53 AM 19.9 °F 13.4 °F 12.9 °F 74% 30.37 in 10.0 mi South 4.6 mph - N/A   Overcast
7:53 AM 21.9 °F 12.5 °F 14.0 °F 72% 30.36 in 10.0 mi South 8.1 mph - N/A   Overcast
8:53 AM 24.1 °F 13.1 °F 16.0 °F 71% 30.32 in 10.0 mi South 11.5 mph 19.6 mph N/A   Overcast
9:53 AM 27.0 °F 16.1 °F 18.0 °F 69% 30.29 in 10.0 mi South 12.7 mph 21.9 mph N/A   Overcast
10:53 AM 32.0 °F 21.6 °F 19.0 °F 59% 30.20 in 10.0 mi South 15.0 mph 27.6 mph N/A   Clear
11:53 AM 37.9 °F 27.1 °F 21.9 °F 53% 30.12 in 10.0 mi SSW 23.0 mph 33.4 mph N/A   Scattered Clouds
12:53 PM 39.9 °F 30.8 °F 25.0 °F 55% 30.06 in 10.0 mi SSW 18.4 mph 34.5 mph N/A   Clear
1:53 PM 43.0 °F 33.8 °F 27.0 °F 53% 30.01 in 10.0 mi SSW 23.0 mph 36.8 mph N/A   Clear
2:53 PM 42.1 °F 33.6 °F 28.0 °F 58% 29.96 in 10.0 mi SSW 18.4 mph 28.8 mph N/A   Clear
3:53 PM 43.0 °F 35.7 °F 28.0 °F 56% 29.94 in 10.0 mi SSW 15.0 mph 21.9 mph N/A   Clear
4:53 PM 41.0 °F 32.5 °F 28.0 °F 60% 29.93 in 10.0 mi SSW 17.3 mph 28.8 mph N/A   Clear
5:53 PM 39.9 °F 31.8 °F 28.0 °F 63% 29.94 in 10.0 mi SW 15.0 mph 26.5 mph N/A   Clear
6:53 PM 39.0 °F 30.6 °F 28.9 °F 67% 29.92 in 10.0 mi SSW 15.0 mph 24.2 mph N/A   Clear
7:53 PM 39.9 °F 31.4 °F 28.9 °F 65% 29.91 in 10.0 mi SW 16.1 mph 24.2 mph N/A   Clear
8:53 PM 39.9 °F 31.1 °F 28.9 °F 65% 29.89 in 10.0 mi SW 17.3 mph 33.4 mph N/A   Clear
9:53 PM 41.0 °F 31.9 °F 28.0 °F 60% 29.87 in 10.0 mi SW 19.6 mph 25.3 mph N/A   Clear
10:53 PM 39.9 °F 30.8 °F 28.0 °F 63% 29.86 in 10.0 mi SW 18.4 mph 26.5 mph N/A   Clear
11:53 PM 39.9 °F 30.8 °F 28.9 °F 65% 29.86 in 10.0 mi SW 18.4 mph 25.3 mph N/A   Clear